Date String (YYYY-MM-DD hh:mm:ss) UTC,Instrument flags,absolute air pressure of the measurement (hPa),sample flow rate (lpm),inlet stack bypass flow (lpm),air temperature of the measurement (°C),ambient temperature measured by the external sensor (°C),aerosol sample conditioner tube jacket temperature (°C),OPC LED temperature (°C),internal box temperature (°C),relative humidity of the measurement (%),span deviation,mass concentration of particles derived from Lorenz-Mie calculation of OPC scattering (μg/m³),mass concentration of particles derived from Lorenz-Mie calculation of OPC scattering (μg/m³),mass concentration of particles derived from Lorenz-Mie calculation of OPC scattering (μg/m³)
DateTimeUTC,F1_M11,P_M11,Q1_M11,Q2_M11,T1_M11,T2_M11,T3_M11,T4_M11,T5_M11,U1_M11,ZSPAN_M11,X0_M11,X2_M11,X1_M11
2024-04-20 03:00:00,SystemResetWarning,0836.4,5.00,000.00,019.6,019.0,000.0,028.1,021.4,023.9,0000.0,0009.70,0006.20,0005.66
2024-04-20 03:01:00,SystemResetWarning,0836.4,4.99,000.00,019.6,019.1,000.0,028.1,021.4,023.9,0000.0,0009.61,0006.17,0005.66
2024-04-20 03:02:00,SystemResetWarning,0836.5,5.00,000.00,019.6,019.1,000.0,028.1,021.4,024.3,0000.0,0009.60,0006.16,0005.66
2024-04-20 03:03:00,SystemResetWarning,0836.5,5.01,000.00,019.6,019.1,000.0,028.1,021.4,025.0,0000.0,0009.53,0006.13,0005.65
2024-04-20 03:04:00,SystemResetWarning,0836.5,5.00,000.00,019.6,019.0,000.0,028.1,021.4,024.4,0000.0,0009.32,0006.12,0005.64
2024-04-20 03:05:00,SystemResetWarning,0836.5,5.00,000.00,019.6,019.0,000.0,028.1,021.4,024.2,0000.0,0009.24,0006.07,0005.60
2024-04-20 03:06:00,SystemResetWarning,0836.5,4.99,000.00,019.6,019.1,000.0,028.1,021.4,024.1,0000.0,0009.33,0006.03,0005.58
2024-04-20 03:07:00,SystemResetWarning,0836.6,4.99,000.00,019.6,019.1,000.0,028.1,021.4,024.1,0000.0,0009.16,0006.03,0005.57
2024-04-20 03:08:00,SystemResetWarning,0836.6,4.99,000.00,019.6,019.1,000.0,028.1,021.4,024.0,0000.0,0008.86,0006.04,0005.58
2024-04-20 03:09:00,SystemResetWarning,0836.6,5.00,000.00,019.6,019.1,000.0,028.1,021.4,024.0,0000.0,0008.94,0006.07,0005.59
2024-04-20 03:10:00,SystemResetWarning,0836.6,5.00,000.00,019.6,019.1,000.0,028.1,021.4,024.0,0000.0,0008.97,0006.08,0005.59
2024-04-20 03:11:00,SystemResetWarning,0836.6,5.00,000.00,019.6,019.1,000.0,028.1,021.4,024.0,0000.0,0008.96,0006.08,0005.61
2024-04-20 03:12:00,SystemResetWarning,0836.6,5.00,000.00,019.6,019.1,000.0,028.1,021.4,024.0,0000.0,0009.07,0006.11,0005.62
2024-04-20 03:13:00,SystemResetWarning,0836.6,5.01,000.00,019.6,019.1,000.0,028.1,021.4,024.0,0000.0,0009.08,0006.13,0005.65
2024-04-20 03:14:00,SystemResetWarning,0836.7,5.01,000.00,019.6,019.1,000.0,028.1,021.4,024.0,0000.0,0009.10,0006.15,0005.67
2024-04-20 03:15:00,SystemResetWarning,0836.7,5.01,000.00,019.6,019.1,000.0,028.1,021.4,024.0,0000.0,0009.09,0006.15,0005.68
2024-04-20 03:16:00,SystemResetWarning,0836.7,4.99,000.00,019.6,019.1,000.0,028.1,021.4,024.0,0000.0,0009.11,0006.17,0005.70
2024-04-20 03:17:00,SystemResetWarning,0836.7,4.99,000.00,019.6,019.1,000.0,028.1,021.4,024.0,0000.0,0008.92,0006.16,0005.71
2024-04-20 03:18:00,SystemResetWarning,0836.6,4.99,000.00,019.6,019.1,000.0,028.1,021.4,024.0,0000.0,0008.76,0006.14,0005.72
2024-04-20 03:19:00,SystemResetWarning,0836.6,5.00,000.00,019.6,019.1,000.0,028.1,021.4,024.0,0000.0,0008.71,0006.12,0005.72
2024-04-20 03:20:00,SystemResetWarning,0836.6,5.01,000.00,019.6,019.1,000.0,028.1,021.4,024.0,0000.0,0008.63,0006.10,0005.72
2024-04-20 03:21:00,SystemResetWarning,0836.7,5.00,000.00,019.6,019.1,000.0,028.1,021.4,024.0,0000.0,0008.59,0006.09,0005.73
2024-04-20 03:22:00,SystemResetWarning,0836.7,5.01,000.00,019.6,019.1,000.0,028.1,021.4,024.0,0000.0,0008.53,0006.08,0005.74
2024-04-20 03:23:00,SystemResetWarning,0836.7,5.00,000.00,019.6,019.1,000.0,028.1,021.4,024.0,0000.0,0008.43,0006.07,0005.75
2024-04-20 03:24:00,SystemResetWarning,0836.7,5.01,000.00,019.6,019.1,000.0,028.1,021.4,024.0,0000.0,0008.37,0006.05,0005.74
2024-04-20 03:25:00,SystemResetWarning,0836.8,5.00,000.00,019.6,019.1,000.0,028.1,021.4,024.0,0000.0,0008.40,0006.06,0005.75
2024-04-20 03:26:00,SystemResetWarning,0836.8,5.00,000.00,019.6,019.1,000.0,028.1,021.4,024.0,0000.0,0008.42,0006.07,0005.75
2024-04-20 03:27:00,SystemResetWarning,0836.8,4.99,000.00,019.6,019.1,000.0,028.1,021.4,024.0,0000.0,0008.33,0006.04,0005.73
2024-04-20 03:28:00,SystemResetWarning,0836.8,4.99,000.00,019.6,019.1,000.0,028.1,021.4,024.0,0000.0,0008.27,0006.01,0005.71
2024-04-20 03:29:00,SystemResetWarning,0836.8,5.00,000.00,019.6,019.1,000.0,028.1,021.4,024.0,0000.0,0008.28,0006.00,0005.70
2024-04-20 03:30:00,SystemResetWarning,0836.8,5.02,000.00,019.6,019.1,000.0,028.1,021.4,024.0,0000.0,0008.19,0005.94,0005.67
2024-04-20 03:31:00,SystemResetWarning,0836.8,5.00,000.00,019.6,019.1,000.0,028.1,021.4,024.0,0000.0,0008.10,0005.90,0005.64
2024-04-20 03:32:00,SystemResetWarning,0836.8,4.99,000.00,019.6,019.1,000.0,028.1,021.4,024.0,0000.0,0008.02,0005.86,0005.61
2024-04-20 03:33:00,SystemResetWarning,0836.8,5.00,000.00,019.6,019.1,000.0,028.1,021.4,023.8,0000.0,0008.01,0005.83,0005.59
2024-04-20 03:34:00,SystemResetWarning,0836.8,5.00,000.00,019.6,019.0,000.0,028.1,021.4,023.7,0000.0,0008.03,0005.83,0005.57
2024-04-20 03:35:00,SystemResetWarning,0836.8,5.01,000.00,019.6,019.0,000.0,028.1,021.4,023.6,0000.0,0008.17,0005.88,0005.58
2024-04-20 03:36:00,SystemResetWarning,0836.9,5.00,000.00,019.6,019.0,000.0,028.1,021.4,023.5,0000.0,0008.22,0005.90,0005.59
2024-04-20 03:37:00,SystemResetWarning,0836.8,4.99,000.00,019.6,019.0,000.0,028.1,021.4,023.5,0000.0,0008.22,0005.90,0005.58
2024-04-20 03:38:00,SystemResetWarning,0836.8,4.99,000.00,019.6,019.0,000.0,028.1,021.3,023.5,0000.0,0008.22,0005.89,0005.57
2024-04-20 03:39:00,SystemResetWarning,0836.9,5.00,000.00,019.6,019.0,000.0,028.1,021.3,023.4,0000.0,0008.29,0005.90,0005.58
2024-04-20 03:40:00,SystemResetWarning,0836.9,5.00,000.00,019.6,019.0,000.0,028.1,021.3,023.4,0000.0,0008.45,0005.96,0005.59
2024-04-20 03:41:00,SystemResetWarning,0836.9,5.00,000.00,019.6,019.0,000.0,028.1,021.3,023.4,0000.0,0008.58,0006.02,0005.62
2024-04-20 03:42:00,SystemResetWarning,0837.0,5.01,000.00,019.6,019.0,000.0,028.1,021.3,023.4,0000.0,0008.79,0006.11,0005.65
2024-04-20 03:43:00,SystemResetWarning,0837.0,5.00,000.00,019.6,019.0,000.0,028.1,021.3,023.3,0000.0,0008.89,0006.14,0005.67
2024-04-20 03:44:00,SystemResetWarning,0837.0,5.00,000.00,019.6,019.0,000.0,028.1,021.3,023.3,0000.0,0009.04,0006.19,0005.69
2024-04-20 03:45:00,SystemResetWarning,0836.9,5.00,000.00,019.6,019.0,000.0,028.1,021.3,023.2,0000.0,0009.06,0006.17,0005.68
2024-04-20 03:46:00,SystemResetWarning,0836.9,5.00,000.00,019.6,019.0,000.0,028.1,021.3,023.3,0000.0,0009.03,0006.16,0005.68
2024-04-20 03:47:00,SystemResetWarning,0837.0,5.00,000.00,019.6,019.0,000.0,028.1,021.3,023.2,0000.0,0009.07,0006.16,0005.66
2024-04-20 03:48:00,SystemResetWarning,0836.9,4.99,000.00,019.6,018.9,000.0,028.1,021.3,023.3,0000.0,0009.12,0006.18,0005.68
2024-04-20 03:49:00,SystemResetWarning,0836.9,5.00,000.00,019.5,019.0,000.0,028.1,021.3,023.3,0000.0,0009.18,0006.18,0005.67
2024-04-20 03:50:00,SystemResetWarning,0836.9,4.99,000.00,019.5,018.9,000.0,028.1,021.3,023.3,0000.0,0009.18,0006.18,0005.66
2024-04-20 03:51:00,SystemResetWarning,0837.0,5.00,000.00,019.5,018.9,000.0,028.1,021.3,023.3,0000.0,0009.12,0006.15,0005.65
2024-04-20 03:52:00,SystemResetWarning,0837.0,5.01,000.00,019.5,018.9,000.0,028.1,021.3,023.3,0000.0,0009.05,0006.13,0005.64
2024-04-20 03:53:00,SystemResetWarning,0837.0,4.99,000.00,019.5,018.9,000.0,028.1,021.3,023.3,0000.0,0008.93,0006.08,0005.62
2024-04-20 03:54:00,SystemResetWarning,0837.0,5.01,000.00,019.5,018.9,000.0,028.1,021.3,023.4,0000.0,0008.94,0006.09,0005.60
2024-04-20 03:55:00,SystemResetWarning,0836.9,5.00,000.00,019.5,018.9,000.0,028.1,021.3,024.4,0000.0,0008.83,0006.06,0005.59
2024-04-20 03:56:00,SystemResetWarning,0837.0,5.00,000.00,019.5,018.9,000.0,028.1,021.3,024.1,0000.0,0008.81,0006.07,0005.59
2024-04-20 03:57:00,SystemResetWarning,0836.9,5.00,000.00,019.5,018.9,000.0,028.1,021.3,023.7,0000.0,0008.77,0006.05,0005.58
2024-04-20 03:58:00,SystemResetWarning,0837.0,5.00,000.00,019.5,018.9,000.0,028.1,021.3,023.6,0000.0,0008.76,0006.05,0005.59
2024-04-20 03:59:00,SystemResetWarning,0837.0,5.00,000.00,019.5,018.9,000.0,028.0,021.3,023.6,0000.0,0008.70,0006.03,0005.58
